Location: Anuling
(14.1239°N, 120.8922°E)
Time: 18:08:34
(UTC+00:00)

Nadezhda 3 Rocket - Visible Passes

Search period start: 11 April 2026 00:00
Search period end: 21 April 2026 00:00
Orbit: 955 x 999 km, 82.9° (Epoch: 11 April)

Date Brightness Start Highest point End Pass type
(mag) Time Alt. Az. Time Alt. Az. Time Alt. Az.
11 Apr 4.7 11:25:17 10° NNE 11:29:58 29° ENE 11:29:58 29° ENE visible
11 Apr 6.0 13:11:04 10° NW 13:14:43 21° WNW 13:14:43 21° WNW visible
12 Apr 3.8 11:50:15 10° N 11:56:19 66° E 11:56:38 65° ESE visible
13 Apr 5.7 10:35:32 10° ENE 10:36:36 10° E 10:37:41 10° E visible
13 Apr 4.4 12:16:01 10° NNW 12:22:00 58° W 12:23:24 47° SW visible
14 Apr 4.9 10:57:35 10° NNE 11:02:30 25° E 11:05:32 17° ESE visible
14 Apr 5.7 12:42:40 10° NW 12:47:38 26° W 12:50:19 19° SW visible
15 Apr 4.0 11:22:19 10° N 11:28:17 55° E 11:32:37 19° SSE visible
15 Apr 6.7 13:11:31 10° WNW 13:13:09 11° W 13:14:49 10° WSW visible
16 Apr 4.2 11:47:55 10° N 11:54:00 69° W 11:59:55 11° S visible
17 Apr 5.1 10:29:58 10° NE 10:34:27 21° E 10:38:56 10° SE visible
17 Apr 5.6 12:14:19 10° NNW 12:19:38 31° W 12:24:59 10° SSW visible
18 Apr 4.2 10:54:25 10° NNE 11:00:16 46° E 11:06:07 10° SSE visible
18 Apr 6.6 12:42:14 10° WNW 12:45:11 14° W 12:48:10 10° WSW visible
19 Apr 4.0 11:19:51 10° N 11:25:59 82° W 11:32:10 10° S visible
20 Apr 5.3 11:46:03 10° NNW 11:51:38 38° W 11:57:16 10° SSW visible
